CZ-6A DEB, 54915

Orbit data source: Space-Track

CZ-6A DEB, 54915 is space debris in SSO originally from a launch on Fri, 11 Nov 2022 UTC launched from the Taiyaun Space Center, China (TSC). Debris objects in space refer to the collection of defunct objects orbiting the Earth. Examples of debris include non-operational satellites, rocket bodies, and fragments generated from explosions, collisions, or faulty payload assembly.

Loading next visibility...
Identifier
54915, 2022-151RC
Orbit
SSO
Country
Flag of CNCN / PRC
Related business
Manufacturer
SAST
Mission
Spacecraft
Bus & Motor
Unknown
Mass
Unknown
Launch date (UTC)
2022-11-11 (4 years ago)
Launch vehicle
Unknown
Launch site
Taiyaun Space Center, China (TSC)
Object type
Payload
Rocket body
Debris
Shape & HBR
Unknown shape, 0.1 m
Radar Cross Section
Medium (>0.1 m² and <1 m²)

Expand to show TLE details & history
Last TLE update: 2 days ago

TLE from 2 days ago
0 CZ-6A DEB
1 54915U 22151RC  26171.41615097  .00000460  00000-0  29307-3 0  9999
2 54915  98.8473 162.0139 0061681 340.4153  19.4648 14.07674515184464
Epoch: 2026-06-20T09:59Z
TLE epoch observation values (Epoch: 2026-06-20T09:59:15.443Z)
Latitude
-0.00002°
Longitude
103.56847°
Altitude
828.12 km
Speed
7.461 km/s
True Right ascension
10h 48m 03s
True Declination
0° 00' 00"
Sunlit
Object was in daylight at epoch
Visualization orbit readout
Latitude
Unknown
Longitude
Unknown
Altitude
Unknown
Speed
Unknown
Apparent Right ascension
Unknown
Apparent Declination
Unknown
Sunlit
N/A
Visualization observer readout
Local Sidereal Time
21:29:15
Azimuth
Unknown
Elevation
Unknown
Doppler factor
Unknown
Orbital elements
Apogee altitude
909.195 km
Perigee altitude
819.849 km
Semi-major axis
7,242.659 km
Eccentricity
0.00617
Inclination
98.8473°
RAAN
162.0139°
Arg. of periapsis
340.4153°
True anomaly
19.70205°
Mean anomaly
19.4648°
Eccentric anomaly
19.58325°
Mean motion
3.52124 °/min
Orbital period
102.24 mins
BSTAR
0.00029307
Loading maneuver chart data...
Computing Atmospheric mass density...
Loading historical data...
Loading historical data...
Loading historical data...
Loading historical data...
Loading historical data...
Loading historical data...
Loading historical data...

Documentation

Showing up to 5 results
|